Weather History for K3T5 - April, 2013

Change the Weather History Date:

Monday, April 29, 2013

  Actual Average (KAUS) Record (KAUS)
Temperature  
Mean Temperature 75 °F 71 °F  
Max Temperature 83 °F 83 °F 93 °F (2002)
Min Temperature 67 °F 59 °F 42 °F (2008)
Degree Days  
Heating Degree Days 0 1  
Month to date heating degree days 63  
Since 1 July heating degree days 1900  
Cooling Degree Days 10 6  
Month to date cooling degree days 124  
Year to date cooling degree days 182  
Growing Degree Days 25 (Base 50)    
Moisture  
Dew Point 65 °F    
Average Humidity 82    
Maximum Humidity 93    
Minimum Humidity 51    
Precipitation  
Precipitation 0.15 in 0.10 in 1.89 in (2013)
Month to date precipitation 2.18  
Year to date precipitation 9.47  
Snow  
Snow 0.00 in - - ()
Month to date snowfall  
Since 1 July snowfall  
Snow Depth -    
Sea Level Pressure  
Sea Level Pressure 29.88 in    
Wind  
Wind Speed 3 mph (SSE)    
Max Wind Speed 16 mph    
Max Gust Speed 29 mph    
Visibility 8 miles    
Events Fog , Rain , Thunderstorm    
T = Trace of Precipitation, MM = Missing Value Source: NWS Daily Summary

Daily Weather History Graph

Daily Weather History Graph

Search for Another Location

Airport or City:

Trip Planner

Search our weather history database for the weather conditions in past years. The results will help you decide how hot, cold, wet, or windy it might be!

Date:

Astronomy

Apr. 29, 2013 Rise Set
Actual Time 6:46 AM CDT 8:03 PM CDT
Civil Twilight 6:21 AM CDT 8:29 PM CDT
Nautical Twilight 5:51 AM CDT 8:59 PM CDT
Astronomical Twilight 5:20 AM CDT 9:30 PM CDT
Moon No Moon Rise 10:15 AM CDT (4/29)
Length of Visible Light 14h 07m
Length of Day
13h 17m
Waning Gibbous, 80% of the Moon is Illuminated
Apr 29
Waning Gibbous
May 2
Last Quarter
May 9
New
May 17
First Quarter
May 24
Full

Hourly Weather History & Observations

Time (CDT) Temp. Heat Index Dew Point Humidity Pressure Visibility Wind Dir Wind Speed Gust Speed Precip Events Conditions
12:15 AM 68.0 °F - 65.3 °F 91% 29.93 in 10.0 mi Calm Calm - N/A   Clear
12:35 AM 67.6 °F - 65.5 °F 93% 29.92 in 10.0 mi Calm Calm - N/A   Clear
12:55 AM 68.2 °F - 66.0 °F 93% 29.93 in 10.0 mi South 4.6 mph - N/A   Clear
1:15 AM 68.2 °F - 65.8 °F 92% 29.92 in 10.0 mi South 3.5 mph - N/A   Clear
1:35 AM 67.6 °F - 65.5 °F 93% 29.91 in 7.0 mi South 3.5 mph - N/A   Clear
1:55 AM 68.5 °F - 66.6 °F 93% 29.91 in 7.0 mi South 4.6 mph - N/A   Clear
2:15 AM 68.2 °F - 66.2 °F 93% 29.89 in 5.0 mi South 5.8 mph - N/A   Clear
2:35 AM 68.2 °F - 66.2 °F 93% 29.88 in 4.0 mi South 4.6 mph - N/A   Clear
2:55 AM 68.2 °F - 66.2 °F 93% 29.88 in 4.0 mi South 3.5 mph - N/A   Clear
3:15 AM 68.2 °F - 66.2 °F 93% 29.88 in 2.0 mi Calm Calm - N/A   Mist
3:35 AM 68.4 °F - 66.4 °F 93% 29.88 in 1.2 mi SSE 3.5 mph - N/A   Mostly Cloudy
3:55 AM 68.9 °F - 66.7 °F 93% 29.88 in 0.2 mi SSE 3.5 mph - N/A   Drizzle
4:15 AM 69.3 °F - 67.3 °F 93% 29.88 in 0.5 mi SSE 3.5 mph - N/A   Light Drizzle
4:35 AM 69.4 °F - 67.3 °F 93% 29.88 in 0.5 mi SSE 4.6 mph - N/A Fog Fog
4:55 AM 69.8 °F - 67.6 °F 93% 29.88 in 1.2 mi South 4.6 mph - N/A   Overcast
5:15 AM 69.4 °F - 67.1 °F 92% 29.88 in - South 6.9 mph - N/A   Overcast
5:35 AM 69.3 °F - 67.1 °F 93% 29.88 in 5.0 mi South 4.6 mph - N/A   Overcast
5:55 AM 69.4 °F - 67.1 °F 92% 29.88 in 7.0 mi South 3.5 mph - N/A   Overcast
6:15 AM 69.3 °F - 66.6 °F 91% 29.88 in 7.0 mi South 3.5 mph - N/A   Overcast
6:35 AM 68.5 °F - 65.7 °F 90% 29.89 in 7.0 mi SSW 3.5 mph - N/A   Scattered Clouds
6:55 AM 68.4 °F - 65.5 °F 90% 29.88 in 5.0 mi Calm Calm - N/A   Clear
7:15 AM 68.0 °F - 65.1 °F 90% 29.88 in 4.0 mi Calm Calm - N/A   Clear
7:35 AM 68.5 °F - 65.7 °F 90% 29.90 in 3.0 mi Calm Calm - N/A   Mist
7:55 AM 69.3 °F - 66.2 °F 90% 29.91 in 4.0 mi Calm Calm - N/A   Mostly Cloudy
8:15 AM 70.0 °F - 66.6 °F 89% 29.92 in 5.0 mi South 4.6 mph - N/A   Scattered Clouds
8:35 AM 70.2 °F - 66.6 °F 88% 29.92 in 5.0 mi South 6.9 mph - N/A   Mostly Cloudy
8:55 AM 71.1 °F - 66.6 °F 86% 29.93 in 7.0 mi South 6.9 mph - N/A   Mostly Cloudy
9:15 AM 71.6 °F - 66.4 °F 84% 29.93 in 7.0 mi SSW 4.6 mph - N/A   Overcast
9:35 AM 71.8 °F - 66.4 °F 83% 29.93 in 7.0 mi South 3.5 mph - N/A   Mostly Cloudy
9:55 AM 72.0 °F - 66.4 °F 83% 29.93 in 7.0 mi SSW 3.5 mph - N/A Rain Light Rain
10:15 AM 72.5 °F - 65.7 °F 79% 29.93 in 10.0 mi Calm Calm - N/A   Mostly Cloudy
10:35 AM 73.6 °F - 64.9 °F 74% 29.93 in 10.0 mi Calm Calm - N/A   Mostly Cloudy
10:55 AM 74.3 °F - 64.6 °F 72% 29.93 in 10.0 mi SSE 4.6 mph - N/A   Mostly Cloudy
11:15 AM 74.7 °F - 64.4 °F 70% 29.93 in 10.0 mi SSE 4.6 mph - N/A   Overcast
11:35 AM 75.0 °F - 63.9 °F 68% 29.93 in 10.0 mi South 4.6 mph - N/A   Mostly Cloudy
11:55 AM 76.8 °F - 64.6 °F 66% 29.93 in 10.0 mi SSE 5.8 mph - N/A   Mostly Cloudy
12:15 PM 76.5 °F - 64.4 °F 66% 29.93 in 10.0 mi SSW 3.5 mph - N/A   Scattered Clouds
12:35 PM 77.4 °F - 63.5 °F 62% 29.92 in 10.0 mi SE 5.8 mph - N/A   Mostly Cloudy
1:15 PM 78.6 °F - 63.5 °F 60% 29.91 in 10.0 mi SE 4.6 mph - N/A   Mostly Cloudy
1:35 PM 78.8 °F - 63.1 °F 59% 29.89 in 10.0 mi Calm Calm - N/A   Scattered Clouds
1:55 PM 79.3 °F - 62.4 °F 56% 29.88 in 10.0 mi SSW 3.5 mph - N/A   Scattered Clouds
2:15 PM 80.2 °F 81.5 °F 63.0 °F 55% 29.87 in 10.0 mi SE 3.5 mph - N/A   Scattered Clouds
2:35 PM 81.3 °F 82.7 °F 63.5 °F 55% 29.86 in 10.0 mi East 4.6 mph - N/A   Clear
2:55 PM 81.3 °F 82.6 °F 63.3 °F 54% 29.86 in 10.0 mi ESE 5.8 mph - N/A   Scattered Clouds
3:15 PM 81.7 °F 83.0 °F 63.3 °F 54% 29.84 in 10.0 mi ENE 5.8 mph - N/A   Clear
3:35 PM 82.8 °F 84.0 °F 63.7 °F 52% 29.83 in 10.0 mi SE 5.8 mph - N/A   Clear
3:55 PM 82.8 °F 84.0 °F 63.3 °F 52% 29.82 in 10.0 mi ESE 8.1 mph - N/A   Clear
4:15 PM 83.8 °F 85.1 °F 63.9 °F 51% 29.82 in 10.0 mi ESE 6.9 mph - N/A   Scattered Clouds
4:35 PM 81.9 °F 83.4 °F 64.4 °F 55% 29.82 in 10.0 mi East 8.1 mph - N/A   Scattered Clouds
4:55 PM 82.2 °F 83.7 °F 64.2 °F 54% 29.81 in 10.0 mi SE 10.4 mph - N/A   Scattered Clouds
5:15 PM 70.5 °F - 63.5 °F 78% 29.83 in 10.0 mi SSE 16.1 mph 28.8 mph N/A   Mostly Cloudy
5:35 PM 68.2 °F - 64.6 °F 88% 29.86 in 4.0 mi SSE 12.7 mph - 0.03 in Rain , Thunderstorm Heavy Thunderstorms and Rain
5:55 PM 69.4 °F - 66.0 °F 89% 29.84 in 7.0 mi South 8.1 mph 16.1 mph 0.08 in Rain , Thunderstorm Light Thunderstorms and Rain
6:15 PM 69.1 °F - 66.0 °F 90% 29.83 in 7.0 mi SSE 8.1 mph - 0.02 in Thunderstorm Unknown
6:35 PM 68.9 °F - 65.7 °F 89% 29.84 in 10.0 mi SSE 3.5 mph - 0.02 in Rain Light Rain
6:55 PM 68.5 °F - 65.7 °F 90% 29.84 in 4.0 mi SE 5.8 mph - 0.05 in   Unknown
7:15 PM 68.9 °F - 66.2 °F 91% 29.82 in 10.0 mi SSE 5.8 mph - 0.01 in Rain Light Rain
7:35 PM 69.3 °F - 66.4 °F 91% 29.80 in 10.0 mi SSE 10.4 mph - 0.02 in   Scattered Clouds
7:55 PM 69.4 °F - 66.4 °F 90% 29.83 in 10.0 mi East 3.5 mph - 0.02 in   Clear
8:15 PM 69.4 °F - 66.4 °F 90% 29.84 in 10.0 mi Calm Calm - N/A   Clear
8:35 PM 69.3 °F - 66.2 °F 90% 29.84 in 10.0 mi Calm Calm - N/A   Clear
8:55 PM 68.5 °F - 65.7 °F 90% 29.83 in 10.0 mi Calm Calm - N/A   Clear
9:15 PM 68.2 °F - 65.3 °F 90% 29.83 in 10.0 mi South 4.6 mph - N/A   Clear
9:35 PM 68.2 °F - 65.3 °F 90% 29.83 in 10.0 mi South 5.8 mph - N/A   Clear
9:55 PM 68.2 °F - 65.3 °F 90% 29.84 in 10.0 mi South 4.6 mph - N/A   Clear
10:15 PM 68.2 °F - 65.3 °F 90% 29.84 in 10.0 mi SSE 4.6 mph - N/A   Clear
10:35 PM 68.2 °F - 65.3 °F 90% 29.85 in 10.0 mi Calm Calm - N/A   Clear
10:55 PM 68.2 °F - 65.3 °F 90% 29.85 in 10.0 mi Calm Calm - N/A   Clear
11:15 PM 68.0 °F - 65.1 °F 90% 29.85 in 10.0 mi Calm Calm - N/A   Clear
11:35 PM 67.8 °F - 64.9 °F 90% 29.85 in 7.0 mi Calm Calm - N/A   Clear
11:55 PM 67.1 °F - 64.4 °F 91% 29.85 in 7.0 mi Calm Calm - N/A   Clear